Home > Weather > Concord > Past weeks

Flag for USA Past Weather in Concord, California, USA — Yesterday and Last 2 Weeks

Now
65 °F

Sunny.


Feels Like: 65 °F
Forecast: 57 / 79 °F
Wind: 9 mph from West

Location: Buchanan Field

Current Time: Aug 25, 2016 at 8:31:55 PM

Latest Report: Aug 25, 2016 at 7:53 PM


Visibility: 10 mi

Pressure: 29.82 "Hg

Humidity: 59%

Dew Point: 50 °F

Location of ConcordLocation

Past Weather in Concord — Graph

°F

Concord Temperature Yesterday

Maximum temperature yesterday: 85 °F (at 2:53 PM)
Minimum temperature yesterday: 57 °F (at 5:53 AM)
Average temperature yesterday: 68 °F

High & Low Weather Summary for the Past Weeks

 TemperatureHumidityPressure
High97 °F (Aug 13, 3:53 PM)87% (Aug 16, 5:53 AM)30.05 "Hg (Aug 16, 5:53 AM)
Low55 °F (Aug 15, 4:53 AM)15% (Aug 16, 4:53 PM)29.70 "Hg (Aug 17, 4:53 PM)
Average70 °F55%29.87 "Hg
* Reported Aug 10 6:53 PM — Aug 25 6:53 PM, Concord, Weather by CustomWeather, © 2016

Note: Actual official high and low records may vary slightly from our data, if they occured in-between our weather recording intervals... More about our weather records

Advertising

Concord Weather History for the Previous 24 Hours

Scroll right to see more
 ConditionsComfort  
Time TempWeatherWind HumidityBarometerVisibility
6:53 PM
Thu, Aug 25
73 °FSunny.10 mph43%29.80 "Hg10 mi
5:53 PM78 °FSunny.15 mph32%29.79 "Hg10 mi
4:53 PM82 °FSunny.14 mph29%29.78 "Hg10 mi
3:53 PM82 °FSunny.15 mph35%29.80 "Hg10 mi
2:53 PM81 °FSunny.13 mph38%29.81 "Hg10 mi
1:53 PM79 °FSunny.14 mph41%29.84 "Hg10 mi
12:53 PM75 °FSunny.12 mph47%29.86 "Hg10 mi
11:53 AM71 °FSunny.12 mph53%29.89 "Hg10 mi
10:53 AM69 °FPassing clouds.7 mph53%29.90 "Hg10 mi
9:53 AM64 °FSunny.8 mph61%29.91 "Hg10 mi
8:53 AM60 °FSunny.8 mph69%29.92 "Hg10 mi
7:53 AM58 °FPartly sunny.8 mph72%29.93 "Hg10 mi
6:53 AM55 °FPassing clouds.5 mph80%29.91 "Hg10 mi
5:53 AM56 °FPassing clouds.3 mph77%29.90 "Hg10 mi
4:53 AM56 °FClear.5 mph77%29.89 "Hg10 mi
3:53 AM57 °FClear.7 mph78%29.89 "Hg10 mi
2:53 AM58 °FClear.3 mph75%29.89 "Hg10 mi
1:53 AM58 °FClear.3 mph75%29.90 "Hg10 mi
12:53 AM59 °FClear.8 mph75%29.90 "Hg10 mi
11:53 PM
Wed, Aug 24
60 °FClear.12 mph69%29.91 "Hg10 mi
10:53 PM62 °FClear.8 mph65%29.91 "Hg10 mi
9:53 PM65 °FClear.7 mph56%29.91 "Hg10 mi
8:53 PM68 °FClear.12 mph51%29.90 "Hg10 mi
Weather by CustomWeather, © 2016

See weather overviewHow to use our weather pages